Wind_Speed
20 19 18 16 16 16 14 14 13 13 14 15 15 15 16 16 17 18 18 18 18 18 17 18 19 19 19 18 18 18 17 17 18 19 19 19 19 20 20 19 20 21 23 25 25 26 27 29 30 29 30 34
21 21 19 18 17 16 14 13 13 13 13 14 15 16 16 16 18 19 18 18 18 17 16 17 18 17 18 17 17 17 17 17 18 18 18 17 18 19 19 18 19 21 24 25 24 25 26 27 29 29 28 30
21 22 20 19 19 17 14 13 13 13 14 15 17 18 18 19 20 18 17 18 17 16 16 16 17 16 17 16 16 17 16 16 17 17 17 17 17 17 18 18 20 24 25 25 24 24 25 25 26 28 28 28
20 22 21 19 19 17 16 15 15 16 17 18 19 20 20 22 19 15 15 16 16 15 14 15 15 15 16 15 15 16 15 15 16 16 16 16 16 15 17 20 23 25 25 25 25 25 25 25 25 26 28 28
21 22 20 19 18 18 17 17 18 18 18 19 19 21 22 21 16 15 16 15 15 14 13 14 15 15 14 14 14 15 14 15 15 15 15 15 14 15 18 23 25 24 23 23 24 25 26 25 24 24 25 27
21 21 18 17 17 17 17 17 19 18 18 19 18 21 21 18 15 16 17 15 15 16 16 15 15 16 13 12 13 14 14 16 15 13 14 14 15 17 19 22 23 22 22 22 22 23 24 24 24 23 22 24
18 17 15 14 14 14 14 15 17 17 18 18 18 21 20 17 16 17 16 15 16 18 17 13 14 16 14 12 12 15 16 16 16 16 16 16 17 19 20 21 21 21 21 21 21 21 22 23 22 22 22 22
14 14 15 13 12 12 12 12 15 15 16 16 18 21 19 16 16 16 15 14 15 16 14 12 13 13 12 11 10 14 14 12 14 16 16 17 18 19 20 21 21 22 21 21 21 21 21 21 21 21 21 22
14 16 15 12 11 11 12 12 13 14 15 15 17 20 18 16 15 14 14 14 14 14 13 13 12 11 10 10 10 12 11 9 11 12 12 13 14 14 17 21 21 21 22 21 21 21 21 21 21 20 20 21
16 17 14 11 11 12 12 12 13 14 14 14 16 18 16 15 14 13 14 13 13 13 13 12 11 11 10 10 10 10 10 10 11 11 10 10 11 11 14 19 21 21 22 22 22 21 22 22 22 22 21 21
16 15 14 13 13 14 12 12 13 14 14 16 17 16 14 14 14 14 14 13 13 13 12 12 11 11 10 10 10 10 10 10 10 11 11 10 10 10 12 15 19 21 22 23 23 22 23 23 23 23 23 22
15 15 16 15 14 13 13 13 13 13 16 17 15 13 14 14 14 13 13 12 12 12 11 11 10 10 11 10 10 10 11 11 10 10 11 11 10 11 11 12 14 17 20 24 24 23 24 24 24 25 24 24
15 15 16 16 14 12 14 13 12 16 17 15 13 13 13 14 14 13 13 12 12 12 11 11 10 11 10 10 10 11 11 10 11 11 11 12 12 12 12 11 12 13 16 22 23 24 25 25 25 26 26 26
15 16 16 15 15 15 14 13 14 17 15 13 14 13 13 15 15 13 12 11 11 11 11 10 10 10 10 10 10 10 11 11 11 11 11 12 13 13 13 13 13 13 15 17 20 23 25 26 27 27 28 27
17 17 17 16 16 16 14 15 16 15 13 14 14 14 15 15 13 12 11 11 11 11 11 10 9 9 9 10 10 10 10 10 11 12 12 12 13 14 15 14 13 14 15 14 17 21 24 27 29 29 28 28
19 18 18 18 17 15 15 17 15 13 14 14 14 15 15 14 13 12 12 11 11 10 11 10 10 10 10 10 10 10 10 11 12 12 12 12 13 14 15 16 14 14 15 15 16 18 22 29 30 29 29 29
20 20 20 19 17 15 16 16 14 13 13 13 15 15 14 14 13 12 12 11 11 11 11 11 11 11 10 10 10 10 10 11 12 13 13 13 14 15 15 16 16 15 15 16 17 16 21 28 28 28 28 28
21 21 20 19 17 16 16 15 13 13 14 14 15 15 14 14 13 12 12 12 12 11 12 12 12 12 11 11 10 11 11 12 12 13 14 14 14 15 16 17 17 16 17 18 19 18 20 23 23 25 27 27
23 22 21 20 17 17 17 16 14 14 14 15 16 15 15 14 13 13 12 12 12 11 12 12 12 12 12 11 11 12 12 12 13 14 15 15 15 16 17 17 17 17 18 19 19 19 19 20 21 23 25 26
25 23 21 21 20 19 19 18 16 15 15 15 16 16 15 15 15 14 12 11 11 11 12 12 12 12 12 11 11 12 12 13 14 15 15 15 16 17 17 18 18 18 18 18 19 20 19 21 22 22 23 24
26 24 23 22 21 20 20 19 17 15 15 16 16 15 14 14 15 14 11 10 10 11 11 11 12 12 11 11 12 13 13 14 14 14 15 16 16 16 17 18 19 18 18 18 18 19 19 22 24 22 21 22
27 26 24 22 22 22 20 20 19 17 16 16 15 13 13 14 15 13 11 11 11 11 11 11 12 12 12 11 12 12 13 14 14 14 15 16 16 15 16 18 19 19 18 18 18 19 19 21 23 23 21 20
27 26 24 23 22 22 22 20 20 19 17 16 15 13 13 14 14 12 11 11 11 11 12 12 12 12 12 11 12 12 13 14 14 14 14 15 16 16 16 17 18 17 16 17 18 19 19 20 23 23 21 19
28 25 23 22 19 19 19 18 17 17 16 16 15 14 14 14 13 13 12 12 12 12 12 12 13 13 12 12 12 12 13 14 13 13 14 15 15 16 15 15 15 13 14 16 17 18 19 19 21 21 18 16
31 27 23 19 18 18 16 14 14 14 15 14 15 15 15 14 14 14 14 13 13 13 13 13 13 13 13 12 12 13 13 12 12 12 13 13 14 14 14 13 11 10 12 14 14 14 15 17 18 16 13 10
33 31 27 21 18 17 15 14 14 14 13 13 14 16 16 14 14 14 15 14 14 13 13 13 13 13 13 12 12 12 12 12 12 12 12 12 12 12 11 11 9 8 9 11 11 11 11 12 11 7 4 3
36 33 31 27 21 17 15 15 15 16 16 16 16 17 16 15 14 15 15 15 14 14 14 13 13 13 12 12 11 11 11 11 11 11 11 11 11 10 10 10 8 6 7 9 11 10 8 6 6 2 0 5
38 33 30 29 26 23 20 17 15 16 17 17 18 17 15 15 15 15 16 15 15 14 14 14 14 13 12 12 11 11 11 11 11 10 10 10 10 9 9 9 7 6 6 9 9 7 5 4 4 2 3 11
37 33 30 27 24 22 20 19 17 16 16 16 16 16 14 14 15 15 16 16 15 15 15 14 14 14 13 12 12 12 11 11 11 10 10 10 9 9 9 9 8 7 7 7 7 6 5 4 3 3 6 11
36 35 32 27 22 19 17 16 17 18 17 15 14 14 13 13 14 14 15 16 16 16 16 15 15 14 14 13 13 12 11 11 11 11 11 10 10 9 8 8 9 9 7 7 8 7 7 5 4 5 7 6
37 36 34 30 26 22 19 17 17 16 15 14 13 12 12 12 13 15 15 16 16 16 16 16 16 15 15 14 13 13 12 12 11 11 11 11 10 9 8 8 9 9 8 7 8 8 8 7 6 6 5 4
Wind_Direction
345 344 343 341 339 338 337 336 336 337 338 340 342 344 344 341 340 343 347 349 349 351 353 354 354 353 350 348 348 347 346 346 343 339 339 336 335 336 335 337 337 331 329 329 326 322 319 316 315 319 323 328
343 342 339 337 335 337 337 336 337 336 336 336 338 340 339 335 333 335 338 342 345 346 348 351 352 351 349 346 345 347 346 345 345 342 340 338 334 332 334 334 330 323 322 325 325 320 317 314 311 312 318 321
339 339 337 334 334 336 336 337 337 334 332 331 332 335 333 331 331 330 332 337 341 342 342 346 349 349 346 344 344 345 347 346 346 346 343 340 334 329 332 329 318 314 316 319 320 318 315 312 309 308 312 318
337 336 335 334 334 335 335 335 333 330 326 327 331 331 329 330 331 328 327 331 336 338 337 339 343 343 342 342 342 344 346 347 347 348 346 342 338 332 324 317 311 311 312 313 315 315 313 311 309 306 306 314
336 335 336 334 335 334 334 333 331 329 326 329 332 329 330 332 329 326 326 325 329 331 328 328 329 332 337 338 338 342 343 343 346 349 349 345 343 334 319 313 312 312 310 309 311 311 311 310 309 307 304 307
334 335 335 332 333 332 331 329 327 326 324 329 330 327 329 329 325 324 324 320 321 322 317 314 314 320 325 327 330 333 333 334 340 345 346 345 341 333 325 321 319 316 312 310 310 310 310 310 309 308 304 302
331 333 331 328 329 328 327 325 324 322 321 325 324 324 326 324 321 321 321 316 316 318 316 308 307 315 318 318 321 326 329 330 333 337 338 338 337 334 332 329 327 325 319 314 311 309 310 310 309 307 304 301
324 326 326 324 322 321 321 319 321 321 320 323 322 324 325 322 320 318 318 315 315 317 313 305 304 310 315 317 318 323 330 329 330 334 335 338 339 338 340 339 335 332 328 323 318 312 310 309 308 306 303 302
315 320 322 318 316 317 316 314 317 318 319 322 323 325 324 321 319 317 317 315 316 316 309 304 302 302 306 310 311 318 324 326 328 331 334 339 342 341 341 343 342 337 333 329 325 319 314 310 306 304 301 300
309 317 316 310 309 311 312 311 313 316 318 319 320 322 322 321 319 317 317 317 316 316 311 305 300 299 300 302 307 312 314 319 324 325 327 332 336 337 336 339 342 340 337 333 329 325 320 314 308 303 300 299
305 309 309 306 304 307 308 305 309 313 314 315 317 317 318 319 318 318 318 319 319 319 314 306 299 296 297 298 301 305 309 311 316 319 319 322 325 327 330 331 335 338 338 335 331 327 323 318 313 307 300 299
299 299 303 304 300 300 301 303 305 307 310 312 312 311 312 314 316 317 316 317 319 319 313 306 297 293 293 293 295 299 304 304 308 313 312 316 318 318 323 322 326 331 332 333 331 328 325 320 316 311 304 299
290 292 297 300 296 293 297 300 299 303 308 308 306 306 307 311 314 313 311 312 315 316 311 304 294 290 288 287 291 294 297 299 302 307 307 310 312 312 316 315 317 318 320 327 328 326 325 321 319 315 308 302
282 285 291 293 292 293 296 295 296 302 304 301 303 303 302 306 310 308 305 303 307 311 307 302 294 287 285 284 288 289 292 296 297 301 302 304 307 309 310 309 311 311 312 317 320 322 321 321 319 315 311 305
275 280 286 287 289 292 291 291 295 298 297 299 300 298 300 303 303 301 299 295 298 303 301 299 293 286 284 283 285 286 287 291 294 296 296 298 301 303 304 304 304 306 307 305 312 315 315 318 318 313 310 306
272 276 281 285 287 286 285 290 291 290 292 296 296 296 298 297 297 296 294 289 289 293 292 290 286 283 282 279 281 284 284 286 290 291 291 293 296 297 299 301 299 302 303 299 305 306 308 315 314 310 308 305
269 273 278 281 282 279 281 286 285 285 290 293 295 297 294 292 292 292 290 286 284 286 285 282 279 277 276 275 276 279 284 285 286 288 289 291 295 295 296 298 298 300 300 298 301 299 303 310 309 306 305 304
265 269 273 276 276 276 278 280 280 283 289 292 295 296 292 291 287 286 287 281 279 280 278 276 274 273 272 272 273 277 282 283 284 286 287 291 294 293 294 296 297 299 299 299 300 296 299 301 298 297 299 301
263 265 268 271 272 275 277 278 279 282 286 290 294 293 291 288 283 285 284 276 273 273 273 272 270 270 270 269 272 277 278 279 283 284 284 288 292 292 293 294 296 297 298 299 298 296 295 292 288 288 293 297
260 261 264 268 272 274 276 277 278 280 282 288 291 290 288 285 284 286 281 269 266 268 268 268 269 269 269 270 273 277 276 278 281 281 282 284 288 291 292 294 296 296 296 296 297 296 291 290 289 284 286 291
258 259 261 266 271 272 273 275 275 275 278 285 287 284 281 280 283 283 271 260 260 264 264 264 268 267 267 270 273 275 275 277 278 279 281 283 285 287 290 294 295 296 297 296 296 294 288 290 290 282 280 283
255 257 260 262 266 269 270 271 271 272 274 279 280 274 271 274 278 275 259 254 258 259 261 264 265 265 266 267 270 273 273 275 276 276 278 282 283 284 288 292 294 296 298 296 295 292 287 288 287 281 279 278
251 253 256 257 260 264 266 266 267 269 270 272 273 267 266 271 273 265 251 251 254 256 260 262 263 264 262 262 267 270 271 273 274 273 275 279 283 284 285 287 290 294 296 297 294 290 288 286 283 281 279 275
245 246 248 249 251 254 259 258 257 260 262 265 266 263 263 267 266 256 248 248 251 254 256 258 261 261 258 259 263 265 267 270 270 272 277 279 282 285 286 286 286 289 297 298 293 291 291 286 284 285 284 277
241 239 238 237 238 242 245 244 242 247 252 253 258 263 264 262 257 250 245 246 249 251 252 255 258 256 255 255 257 260 262 263 265 269 274 277 281 282 284 287 285 290 301 299 296 300 299 294 291 287 286 278
241 240 238 235 235 237 237 236 238 242 243 241 252 264 262 255 250 244 240 243 245 248 249 252 254 252 251 250 251 255 256 256 260 264 266 271 277 278 278 282 285 291 301 301 305 311 304 304 301 280 269 284
241 242 242 241 238 236 236 237 240 244 246 246 253 260 255 248 245 239 237 239 241 244 247 248 249 248 246 245 245 247 249 250 254 257 259 261 269 275 277 277 275 277 292 302 307 308 299 313 325 279 116 341
241 241 242 244 243 240 241 244 244 246 249 248 252 255 249 244 243 238 235 235 236 241 245 245 244 244 243 241 238 238 243 246 248 251 252 253 256 265 275 277 274 269 280 294 303 311 303 319 328 283 345 334
240 238 238 238 238 239 241 244 242 240 241 238 239 243 241 239 238 235 232 232 234 239 243 245 243 240 239 238 234 232 237 242 246 246 245 247 248 251 263 276 282 278 272 277 283 298 305 317 319 304 341 333
239 235 234 230 224 224 226 231 231 230 231 228 227 231 233 234 233 230 230 231 234 237 239 243 242 237 235 235 232 231 236 240 241 241 239 238 240 242 250 264 278 279 274 270 266 270 275 282 300 312 332 327
240 235 233 229 224 223 223 227 231 229 226 225 226 229 230 233 232 229 231 233 233 233 236 241 239 235 233 232 231 232 235 237 235 236 234 231 233 238 242 248 262 274 277 274 264 260 261 265 279 285 291 292
Height
880 879 878 877 876 874 874 872 871 870 869 868 866 864 863 861 860 858 856 854 853 851 849 848 847 846 846 845 843 842 840 839 837 836 835 834 833 832 830 828 827 827 826 826 825 824 823 822 822 821 819 819
878 877 876 875 874 873 872 871 870 869 868 867 865 863 862 860 859 856 855 853 851 850 848 846 846 845 845 844 843 841 839 838 836 835 833 833 832 831 830 827 826 826 826 825 824 823 822 821 819 819 817 817
877 876 875 874 872 871 870 869 868 867 866 865 863 861 860 859 857 855 853 851 850 849 847 846 845 845 844 843 842 841 839 837 835 834 832 831 830 830 828 827 825 824 824 824 823 822 821 819 818 816 815 815
876 875 874 872 871 870 869 867 866 865 864 863 861 859 859 857 856 854 852 850 849 847 846 845 844 844 843 843 842 840 838 836 835 833 832 830 829 829 827 826 824 823 823 822 822 820 818 817 816 814 813 813
875 874 872 871 870 869 867 866 864 864 862 860 859 857 857 856 855 853 851 850 848 847 846 845 844 843 842 842 840 839 837 835 835 833 832 830 829 828 826 825 822 821 821 821 820 818 817 816 814 813 812 812
873 872 871 870 869 868 866 865 863 863 861 859 857 856 856 855 854 852 850 849 847 847 846 844 843 841 841 840 839 838 836 835 834 833 831 830 828 827 825 823 821 820 819 819 818 817 816 814 813 812 811 811
872 871 870 869 868 867 865 864 862 862 860 858 856 855 855 854 852 850 849 848 846 845 844 843 841 840 839 838 837 836 835 834 832 831 830 828 827 825 824 822 820 819 818 817 816 816 815 813 812 811 810 810
871 870 869 868 867 866 865 863 862 861 859 857 855 854 853 852 850 849 848 846 845 844 843 842 841 839 838 837 836 834 834 833 831 830 829 827 826 824 823 822 820 819 817 816 815 815 814 813 812 811 809 808
869 869 868 867 866 865 864 862 861 860 858 856 854 853 852 850 849 848 846 845 844 843 842 841 840 839 838 837 836 834 833 832 831 830 829 827 826 825 823 822 821 819 817 816 815 814 813 812 812 811 809 807
867 867 866 866 865 864 863 862 860 859 857 856 853 852 851 849 848 847 845 844 842 841 841 840 839 838 837 836 835 834 833 831 831 830 829 828 826 825 823 822 821 819 818 816 815 813 812 811 811 810 808 807
866 865 865 864 863 862 862 860 859 858 856 854 852 851 850 849 847 845 844 842 841 840 839 838 838 837 836 836 835 834 832 831 830 829 828 827 826 825 823 822 820 819 818 816 814 813 812 811 809 808 807 805
864 863 863 862 861 860 860 859 858 857 855 853 852 850 849 847 846 844 843 841 840 838 838 837 836 836 835 835 834 833 832 830 829 828 828 826 826 825 823 822 820 819 817 816 814 812 811 810 808 806 805 804
861 861 861 860 859 859 857 857 856 855 853 852 850 849 848 846 845 843 842 840 839 838 837 836 835 835 834 834 833 832 831 830 829 827 826 825 825 824 823 822 820 818 816 815 813 811 810 808 806 804 803 801
859 859 858 858 857 856 855 855 854 853 852 851 849 848 846 844 843 842 840 839 838 837 836 835 834 833 833 832 832 831 830 829 828 827 825 824 824 823 822 820 819 818 816 814 812 810 808 806 803 802 801 799
857 856 856 855 854 854 853 853 852 852 851 849 848 846 844 843 842 840 839 838 837 836 835 834 833 832 832 831 831 830 829 828 827 826 824 823 822 822 820 819 818 816 815 813 811 809 806 804 801 800 799 797
854 854 853 853 852 851 851 851 850 850 849 847 846 844 843 841 840 839 838 837 836 835 834 833 832 831 831 830 829 829 828 827 826 825 823 821 820 820 819 817 816 814 813 811 809 807 804 802 800 799 798 795
851 851 851 850 849 849 848 848 848 847 846 845 844 842 840 839 838 837 836 835 834 834 833 832 831 830 830 829 828 827 827 826 825 824 822 820 819 818 817 815 814 812 810 809 807 805 803 801 799 798 796 793
848 848 847 847 847 846 846 846 846 845 844 843 841 840 838 837 836 835 834 834 833 833 832 831 830 829 828 828 827 826 826 825 824 823 821 819 818 816 815 814 812 810 808 806 805 803 801 800 799 797 794 791
845 845 844 844 844 843 843 843 843 842 841 840 839 837 836 835 834 833 832 832 831 831 831 830 829 828 827 826 825 825 824 823 822 822 820 818 816 815 814 812 811 809 806 804 802 801 799 798 797 795 791 788
841 841 841 840 840 840 839 839 839 839 838 837 836 835 834 832 831 830 830 830 829 829 829 828 828 827 826 825 824 823 823 822 821 820 818 817 816 814 812 810 809 807 805 803 801 799 797 795 794 791 788 785
838 838 838 837 837 836 836 836 836 836 835 834 833 832 831 830 829 828 828 827 827 827 827 826 826 825 824 823 822 822 821 820 819 819 817 816 815 813 811 809 807 805 804 801 799 797 795 792 790 787 785 783
835 834 834 834 833 833 832 832 832 832 832 831 831 830 829 828 827 826 826 825 825 825 824 824 824 823 822 822 821 820 819 819 818 817 816 814 813 812 810 808 806 804 802 800 798 795 793 790 787 784 782 780
831 830 830 830 830 829 829 829 829 829 828 828 827 827 826 825 824 824 823 823 822 822 822 822 822 821 821 820 819 819 818 817 816 815 815 813 811 810 809 807 805 803 801 798 795 793 790 787 784 781 779 776
826 826 826 826 827 826 825 825 825 825 824 824 824 823 823 822 822 822 821 821 820 820 820 819 819 819 819 818 817 817 816 815 814 814 813 811 810 808 807 805 804 802 800 797 793 790 787 784 780 777 775 773
821 821 822 822 822 822 822 822 822 821 821 820 820 820 819 819 819 819 819 819 818 818 817 817 817 817 816 816 815 815 814 813 813 812 811 810 808 806 805 804 802 801 799 796 792 788 784 780 777 774 773 771
816 816 817 818 818 818 818 818 818 818 817 817 816 816 816 816 816 816 816 816 816 815 815 815 814 814 814 813 813 812 812 812 811 810 810 809 807 805 804 803 801 800 799 796 792 788 784 778 775 773 772 772
811 812 812 813 814 814 814 814 814 813 814 813 813 812 812 812 812 812 812 812 813 813 812 812 812 812 811 811 811 810 810 809 809 808 808 807 806 804 802 801 800 799 798 797 793 790 784 779 776 773 772 773
807 809 809 810 810 811 810 810 810 809 809 809 809 809 809 809 809 809 809 809 809 810 810 810 809 809 809 808 808 808 808 807 807 806 806 806 804 803 801 799 799 798 797 797 794 791 785 781 779 775 773 773
804 805 806 806 807 807 807 806 806 806 806 805 806 805 805 805 805 805 805 805 806 806 807 807 806 806 806 806 806 805 805 805 804 804 804 804 803 801 800 798 798 797 796 796 795 792 788 785 782 778 776 775
801 801 801 802 802 802 802 802 801 801 801 802 802 802 802 802 802 802 802 802 802 803 803 804 803 803 803 803 803 803 803 802 802 802 801 801 801 800 799 798 796 795 794 794 793 792 790 788 786 783 782 780
797 797 796 796 796 796 796 796 796 796 797 798 799 798 798 799 799 799 799 799 799 799 800 801 800 800 800 800 800 800 800 799 799 799 799 799 799 798 797 796 795 794 793 792 791 790 789 788 787 786 785 783